Regional Weather Roundup
Issued by NWS

Home | Current Version | Previous Version | Graphics & Text | Print | Product List | Glossary On
Versions: 1 2 3 4 5 6 7 8 9 10 11 12 13 14 15 16 17 18 19 20 21 22 23 24 25 26 27 28 29 30 31 32 33 34 35 36 37 38 39 40 41 42 43 44 45 46 47 48 49 50
000
ASUS43 KOAX 050710
RWRNE

WEATHER ROUNDUP FOR NEBRASKA
NATIONAL WEATHER SERVICE OMAHA NE
100 AM CST THU MAR 05 2015

NOTES: SATELLITE DATA IS BEING USED TO AUGMENT CLOUD COVER ABOVE
       12000 FEET.
       "FAIR" INDICATES FEW OR NO CLOUDS BELOW 12,000 FEET WITH NO
       SIGNIFICANT WEATHER AND/OR OBSTRUCTIONS TO VISIBILITY.

  * THESE STATIONS DO NOT REPORT WEATHER SUCH AS RAIN...SNOW OR FOG.

NEZ001>004-019>022-054>056-050800-
NEBRASKA PANHANDLE

CITY           SKY/WX    TMP DP  RH WIND       PRES   REMARKS
SCOTTSBLUFF    CLEAR      7   1  76 E3        30.23F
ALLIANCE       CLEAR      2  -4  76 S3        30.23S
CHADRON        PTCLDY    -2  -8  76 SW3       30.26F
KIMBALL        CLEAR      9   5  86 W6        30.19F WCI  -1
SIDNEY         CLEAR     10   4  76 W10       30.24F WCI  -4
$$

NEZ057>060-069>072-079>082-050800-
SOUTHWEST NEBRASKA

CITY           SKY/WX    TMP DP  RH WIND       PRES   REMARKS
NORTH PLATTE   CLEAR      6  -2  69 CALM      30.34S
IMPERIAL         N/A     13   6  74 SW3       30.30F
LEXINGTON      CLEAR      9   1  71 SE3       30.37F
MCCOOK         PTCLDY    14   3  61 NE3       30.35F
OGALLALA       CLEAR      4  -1  81 CALM      30.30S
$$

NEZ005>010-023>029-035>040-094-050800-
NORTH CENTRAL NEBRASKA

CITY           SKY/WX    TMP DP  RH WIND       PRES   REMARKS
VALENTINE      CLEAR      0  -4  83 SW8       30.33F WCI -14
AINSWORTH      CLEAR      1  -3  81 SW5       30.33F WCI  -8
BROKEN BOW     CLEAR     -1  -7  75 CALM      30.36S
O`NEILL        CLEAR      2  -4  76 CALM      30.39S
ORD            CLEAR      0  -7  72 SW3       30.39S
THEDFORD       CLEAR      5   0  81 SW7       30.33S WCI  -7
$$

NEZ041-046>049-061>064-073>077-083>087-050800-
SOUTH CENTRAL NEBRASKA

CITY           SKY/WX    TMP DP  RH WIND       PRES   REMARKS
GRAND ISLAND   CLEAR      5  -3  69 CALM      30.43S
AURORA         CLEAR      5  -2  72 CALM      30.42S
HASTINGS       CLEAR      9  -2  61 CALM      30.41S
HEBRON         CLEAR     12   1  61 CALM      30.46S
HOLDREGE       CLEAR      6  -1  73 E6        30.38S WCI  -5
KEARNEY *      CLEAR      9   0  66 CALM      30.40S
YORK           CLEAR      5   0  78 CALM      30.44S
$$

NEZ011>018-030>034-042>045-050800-
NORTHEAST NEBRASKA

CITY           SKY/WX    TMP DP  RH WIND       PRES   REMARKS
NORFOLK        CLEAR      2  -6  69 CALM      30.42F
ALBION         MOCLDY     2  -6  70 CALM      30.42S
BLAIR          CLEAR      7  -4  61 N6        30.44F WCI  -3
COLUMBUS *     CLEAR      3  -9  55 CALM      30.46R
FREMONT        CLEAR      6  -3  68 CALM      30.47S
TEKAMAH        CLEAR      3  -4  72 NW3       30.49S
WAYNE          CLEAR     -5 -11  76 CALM      30.45S
$$

NEZ050>053-065>068-078-088>093-050800-
SOUTHEAST NEBRASKA

CITY           SKY/WX    TMP DP  RH WIND       PRES   REMARKS
LINCOLN        CLEAR      8  -2  63 N5        30.49R WCI   0
OMAHA EPPLEY   CLEAR      6  -2  69 N5        30.49S WCI  -3
BEATRICE       CLEAR      7  -1  69 N5        30.46R WCI  -2
FALLS CITY     CLEAR     12  -1  56 N5        30.48R WCI   4
NEBRASKA CITY  CLEAR      7  -4  60 NE3       30.47S
PLATTSMOUTH    CLEAR      7  -3  62 NE3       30.47R
$$

NEZ044-045-051>053-067-050800-
OMAHA AREA

CITY           SKY/WX    TMP DP  RH WIND       PRES   REMARKS
OMAHA EPPLEY   CLEAR      6  -2  69 N5        30.49S WCI  -3
BLAIR          CLEAR      7  -4  61 N6        30.44F WCI  -3
FREMONT        CLEAR      6  -3  68 CALM      30.47S
MILLARD        CLEAR     10  -3  57 CALM      30.48S
OFFUTT AFB     CLEAR      7  -3  65 NE3       30.47S
PLATTSMOUTH    CLEAR      7  -3  62 NE3       30.47R
WAHOO          FAIR       5  -4  65 N5        30.47S WCI  -4
$$


USA.gov is the U.S. government's official web portal to all federal, state and local government web resources and services.